Location: Joffre
(52.3362°N, 113.5373°W)
Time: 11:26:35
(UTC+00:00)

N. Korean satellite - Pass Details

Date: 11 December 2021
Orbit: 447 x 491 km, 97.3° (Epoch: 21 January)

Event Time Altitude Azimuth Distance (km) Brightness Sun altitude
Rises 01:07:34 0° 214° (SW) 2,500 11.1 -15.1°
Reaches altitude 10° 01:10:42 10° 246° (WSW) 1,618 10.6 -15.6°
Maximum altitude 01:12:10 12° 271° (W) 1,483 10.1 -15.8°
Drops below altitude 10° 01:13:38 10° 297° (WNW) 1,614 9.9 -16.0°
Sets 01:16:46 0° 329° (NNW) 2,485 10.4 -16.5°
